Theta_e
302 302 303 303 303 303 304 306 306 306 307 308 309 309 309 309 308 309 308 307 307 307 307 308 308 308 308 309 310 310 309 308 307 307 307 308 308 308 308 308 306 306 307 307 306 306 306 306 306 306 308 310 309 309 309 309 309 311 316 314 313 315 313 312 314 310 307 310 310 306 306 308 309 308 307 309 309 309 309 309 310 310 310 310 310 310 310 310
302 302 303 303 303 304 305 307 307 307 307 308 309 309 309 308 308 309 308 307 307 307 308 308 308 309 309 310 311 311 310 308 307 308 308 309 308 308 308 308 307 308 308 308 307 307 307 307 307 307 308 309 309 309 309 309 308 312 315 311 316 319 311 308 308 306 306 309 307 305 306 306 308 307 307 309 309 308 309 310 308 309 309 309 309 309 309 309
302 303 303 303 303 304 306 307 307 307 307 308 308 308 309 309 309 309 307 307 307 307 308 308 308 309 310 310 311 311 310 309 308 309 309 309 309 308 308 308 308 308 308 308 307 307 308 308 308 308 308 309 309 309 310 309 308 309 310 313 321 316 307 305 306 306 306 307 305 305 305 305 307 306 306 309 308 308 309 309 308 308 309 308 308 308 308 307
302 303 303 303 303 304 306 307 308 308 308 308 309 309 309 309 309 309 307 307 307 307 309 309 309 310 310 310 311 311 309 309 309 309 309 309 309 309 308 309 308 308 309 308 308 307 308 309 309 309 309 309 309 309 309 309 309 307 309 318 316 305 307 309 306 307 306 305 305 305 305 305 306 306 306 307 309 310 309 308 308 308 307 307 307 307 307 307
303 303 303 303 303 305 306 307 308 308 309 309 309 310 310 310 309 309 307 306 307 308 309 309 309 310 309 309 310 310 309 311 310 309 309 310 309 309 308 309 308 309 308 308 308 307 308 309 309 310 310 309 309 309 309 309 309 309 310 310 307 303 308 309 306 307 306 305 305 304 306 306 305 305 306 307 309 310 308 307 307 307 306 306 307 307 307 307
303 303 303 304 304 306 307 308 309 309 309 309 310 310 310 310 309 309 308 307 307 308 309 309 310 310 309 309 310 309 309 311 310 309 309 309 310 309 309 309 309 309 309 309 308 308 309 309 309 309 309 309 309 309 310 309 309 312 311 305 305 305 307 308 307 307 305 304 304 304 306 305 305 306 306 306 308 308 307 307 306 306 307 306 307 307 307 307
303 303 304 305 306 307 308 309 309 309 309 309 310 310 310 310 309 309 309 308 308 309 309 310 310 310 310 310 310 310 309 309 308 309 309 309 310 309 309 309 309 309 309 309 308 308 309 309 309 308 309 310 309 309 309 308 308 313 314 306 306 306 306 307 306 305 304 304 304 304 305 304 305 307 306 305 307 307 306 306 306 307 307 307 307 307 307 307
303 305 306 307 308 309 309 310 309 309 309 309 310 310 310 310 309 309 309 309 309 310 311 311 310 309 310 310 310 310 309 309 308 308 308 309 310 310 309 309 309 309 309 309 308 308 309 309 310 309 310 310 309 309 308 308 308 312 313 307 306 308 306 306 305 305 305 305 306 305 305 305 306 305 305 306 307 306 306 307 307 307 307 307 307 307 307 306
306 307 308 309 309 309 309 309 309 309 309 309 310 310 309 309 308 308 309 309 309 311 312 311 310 309 310 310 310 309 309 309 308 308 308 309 310 310 310 309 309 309 309 309 309 309 309 309 310 309 309 308 309 310 308 309 309 308 309 307 307 307 305 305 306 306 306 306 305 306 305 305 304 304 306 307 305 305 307 307 307 308 307 307 306 306 306 305
308 308 309 309 310 309 309 309 309 309 309 310 310 309 309 308 308 308 309 309 310 311 312 311 310 310 310 310 310 309 309 308 308 308 309 309 310 310 310 310 310 310 310 310 309 310 310 310 310 310 310 308 309 309 307 309 309 307 307 307 306 305 303 304 305 305 306 307 305 307 307 304 303 305 307 306 305 306 307 306 306 306 305 305 305 304 305 305
308 309 310 310 309 309 309 309 309 310 310 310 309 309 308 308 308 308 309 310 310 311 312 312 310 310 309 309 309 309 308 308 308 309 309 309 310 310 310 310 310 311 311 311 311 310 310 311 309 309 311 309 308 308 307 308 308 307 306 306 305 302 302 303 305 305 305 307 306 305 305 304 304 306 307 305 304 305 305 305 305 304 304 303 303 304 304 303
309 309 310 310 309 309 310 310 310 310 310 310 310 309 308 308 309 309 311 311 312 313 313 311 310 310 310 309 308 308 308 308 309 309 310 310 310 310 310 310 311 311 311 311 311 309 309 310 308 308 308 308 308 307 308 307 306 306 305 309 311 307 306 303 303 305 304 307 306 305 307 308 308 306 305 304 304 305 304 304 304 303 303 303 302 302 302 301
309 310 310 309 309 310 310 310 310 310 310 310 310 310 309 309 310 311 311 312 312 312 312 311 310 310 309 309 308 308 307 308 309 309 310 311 311 311 310 310 311 311 311 311 311 309 308 308 308 307 306 307 308 306 308 305 305 306 304 309 315 313 309 303 302 304 304 306 305 305 310 312 310 306 304 305 304 304 304 303 303 303 303 302 301 300 299 299
310 310 310 310 310 310 310 310 310 310 310 310 310 310 310 310 311 312 311 311 311 311 312 312 310 310 309 309 308 307 307 308 309 310 310 311 311 311 311 311 311 311 311 311 311 310 308 307 307 306 306 307 305 307 311 308 307 309 306 309 311 310 308 304 302 304 305 306 304 307 312 312 310 307 305 305 304 303 303 302 302 303 302 301 300 298 298 297
310 310 310 310 310 310 310 310 310 310 310 310 310 310 310 310 311 311 311 311 311 311 311 311 310 310 309 309 308 307 307 309 310 310 311 311 311 312 311 311 311 311 311 311 311 310 309 307 306 307 306 305 306 311 317 315 313 311 309 313 310 307 307 304 300 300 304 305 303 309 315 314 310 307 305 305 304 304 302 302 302 302 300 299 299 297 297 296
310 310 310 310 310 310 310 310 310 310 310 310 310 310 311 311 311 311 311 311 311 311 310 311 310 309 309 308 308 307 307 308 309 310 311 312 312 312 311 311 311 310 309 309 310 309 308 307 306 306 305 306 307 312 320 319 316 311 308 310 312 309 307 305 303 299 301 305 304 306 310 313 311 307 305 304 304 304 303 302 301 300 298 298 298 297 296 295
310 310 310 310 310 310 310 310 310 310 310 310 310 310 310 310 311 311 311 311 311 310 310 310 309 309 309 308 307 307 306 307 308 310 311 311 311 311 311 311 310 309 308 308 308 307 306 307 306 305 305 305 304 310 320 316 312 312 309 311 312 308 306 307 306 301 300 305 306 305 306 312 310 304 303 303 303 303 302 301 299 297 297 297 297 296 295 295
310 310 310 310 310 310 310 310 310 310 310 310 310 309 309 310 310 311 311 311 311 311 311 309 310 311 309 308 308 306 306 306 307 309 310 310 310 310 310 311 311 309 308 307 305 306 306 305 306 306 305 305 305 309 314 308 307 311 311 313 311 308 307 307 305 303 303 305 306 307 308 309 307 302 301 300 300 300 299 297 297 296 296 296 296 295 294 294
310 310 310 310 310 310 310 310 310 310 310 310 310 310 310 309 309 309 309 310 310 311 311 309 309 310 309 308 307 306 306 306 306 308 309 309 310 310 310 310 309 308 307 308 306 305 305 305 307 310 308 308 306 306 309 306 307 309 308 310 310 309 308 306 305 303 301 305 310 310 307 307 306 302 299 298 297 297 296 296 296 295 295 295 294 294 294 293
310 310 310 310 311 311 311 311 311 311 311 311 311 312 312 311 312 310 308 309 308 308 309 308 308 308 308 308 307 306 306 306 306 307 308 309 309 309 309 308 307 307 308 308 307 304 303 307 309 310 309 308 306 305 305 304 304 307 309 311 309 308 307 304 305 303 300 305 311 309 306 306 304 299 296 296 296 295 295 295 294 294 294 294 293 293 293 293
310 310 311 311 311 312 312 311 311 311 311 312 312 313 312 312 314 312 308 308 308 307 307 307 307 307 307 307 307 306 305 306 306 306 307 308 309 309 308 307 308 307 304 302 305 304 304 307 309 307 306 304 304 304 303 304 305 307 310 312 308 306 306 303 303 303 300 303 309 307 306 307 302 296 295 295 294 294 294 294 294 294 293 293 293 293 293 292
310 310 311 311 311 312 311 310 310 310 311 311 311 312 311 311 312 311 309 308 308 307 307 306 307 307 306 306 307 306 304 306 306 306 307 307 309 309 307 308 311 309 305 305 309 309 307 308 309 305 300 300 302 303 304 306 308 308 308 309 308 305 304 304 304 304 301 302 309 307 305 308 301 294 295 294 294 294 293 294 293 293 293 293 293 292 292 292
310 311 311 311 312 312 310 310 310 310 310 310 311 311 311 311 311 310 309 308 307 307 307 307 306 306 306 306 306 306 304 304 305 304 305 307 307 308 307 309 315 314 310 311 311 309 308 308 306 299 297 303 306 305 305 307 308 308 306 307 308 305 303 306 306 305 302 300 306 307 305 307 300 294 295 294 294 294 293 293 293 293 293 292 292 292 292 292
310 310 310 311 312 311 310 310 310 311 310 309 310 310 310 310 311 311 308 307 307 307 307 307 306 306 306 306 306 307 305 303 303 303 304 306 306 307 306 306 315 317 310 310 311 310 308 305 302 299 302 307 307 307 307 308 311 309 307 305 305 305 303 304 304 302 302 300 301 304 307 308 301 296 296 294 294 294 293 293 293 292 292 292 292 292 291 291
310 311 311 312 311 310 310 310 310 310 309 309 309 309 310 309 310 311 310 311 309 306 308 307 306 306 305 305 306 307 306 304 303 303 303 305 306 307 305 303 311 314 310 310 311 311 308 302 301 304 308 308 306 307 305 305 312 312 309 305 302 304 303 302 303 302 306 307 302 302 306 309 303 296 295 294 293 293 293 292 293 292 292 292 292 291 291 291
310 311 312 311 311 310 310 310 310 309 309 309 307 309 310 309 312 310 312 322 316 305 307 308 306 307 306 305 306 307 308 306 303 302 303 304 304 305 306 304 305 308 308 307 306 306 306 301 302 306 308 307 306 306 303 303 310 309 306 304 301 302 303 303 304 302 305 306 301 300 304 306 303 297 295 294 293 293 293 292 292 292 291 291 291 291 291 290
310 311 311 311 310 310 310 310 310 309 309 309 307 309 309 309 311 308 313 327 319 304 306 308 306 306 306 304 305 307 309 306 304 303 302 304 304 304 308 307 305 303 301 304 307 304 304 306 309 310 307 306 305 304 303 303 307 308 304 303 302 302 303 304 305 304 305 304 301 302 302 303 305 300 294 294 295 293 293 292 292 292 291 291 291 291 291 290
311 311 311 311 310 310 311 311 310 310 309 308 309 309 310 311 310 311 319 320 309 305 306 306 306 305 305 304 304 305 305 303 304 304 301 303 304 303 306 306 305 303 297 304 312 303 303 309 310 309 307 304 304 303 303 303 307 310 305 301 301 301 303 304 307 308 303 302 303 304 301 302 305 301 294 295 296 293 292 293 292 292 291 291 291 290 290 290
310 311 311 310 310 310 311 310 310 310 309 308 309 309 311 312 308 313 324 314 303 306 306 305 307 304 303 305 305 303 303 303 303 303 302 302 304 303 304 302 301 302 298 303 311 303 301 305 303 305 306 304 305 304 303 305 306 306 302 300 299 299 301 301 304 308 305 302 302 303 301 301 302 302 299 297 296 293 293 293 292 291 291 291 290 290 290 290
310 311 310 310 310 310 310 310 310 309 309 308 309 310 309 311 316 320 317 308 304 305 304 305 305 302 303 308 308 303 302 303 301 302 302 301 302 302 302 300 300 304 303 302 307 303 299 302 302 304 304 303 305 303 300 302 302 301 302 302 301 299 301 303 303 305 305 303 301 300 300 301 301 301 298 296 295 293 293 292 292 291 290 290 290 290 290 290
310 310 310 310 310 310 310 310 309 308 308 308 309 312 308 312 328 330 311 303 305 305 305 306 304 302 304 306 305 302 303 302 299 302 304 302 302 301 302 303 302 308 311 305 306 305 302 304 303 301 301 301 303 302 299 298 299 301 303 302 300 299 303 309 311 307 302 300 301 302 302 301 301 300 295 294 294 293 293 293 292 291 290 290 290 290 290 289
310 310 310 311 310 310 310 308 309 307 306 309 310 311 312 315 320 317 308 305 305 304 304 305 302 302 304 303 302 302 303 303 299 301 303 302 301 300 301 303 301 307 310 305 303 306 306 303 299 298 299 300 303 304 303 303 303 303 304 303 301 302 303 305 308 306 302 300 301 303 301 300 301 298 294 294 294 293 293 292 292 291 290 290 290 290 289 289
309 309 310 310 309 309 308 307 307 306 307 311 308 310 320 321 310 304 306 308 304 300 301 303 303 302 303 305 304 301 301 302 301 300 300 302 304 301 299 298 298 302 304 302 301 304 308 305 301 301 301 299 300 303 304 305 305 304 304 304 303 303 302 301 302 302 301 300 299 299 298 300 301 297 294 294 293 293 292 291 291 291 290 290 289 289 289 288
307 307 308 308 308 307 307 307 307 307 310 309 310 318 323 315 304 301 305 307 303 300 300 301 303 303 302 304 302 300 302 301 301 303 302 304 307 306 303 300 299 301 303 303 300 300 305 305 303 302 300 300 302 301 301 303 304 303 302 303 304 302 301 301 304 302 300 300 300 298 299 303 301 296 294 294 292 292 292 291 291 291 290 290 289 288 288 287
306 306 306 307 308 307 308 309 308 309 310 307 313 323 318 305 303 304 305 305 303 304 302 299 303 308 308 306 301 299 301 300 301 303 304 304 304 304 302 301 300 299 303 305 300 298 302 302 302 300 298 301 303 299 298 301 303 302 301 304 304 303 302 303 304 301 299 300 301 301 302 302 297 294 293 293 292 292 291 291 291 291 290 289 288 288 287 287
307 307 308 308 309 309 309 309 309 310 309 309 316 317 308 302 302 304 303 302 302 302 303 302 305 312 313 310 309 303 299 300 301 302 303 302 302 301 300 301 299 297 301 303 300 300 302 303 304 301 298 300 300 298 298 299 301 301 301 302 300 299 302 304 303 300 298 300 301 301 300 298 295 294 292 292 293 292 291 291 291 291 290 289 288 287 286 286
307 308 308 307 308 309 309 309 309 309 306 310 316 310 302 301 300 300 301 301 300 298 303 307 304 305 308 309 312 308 302 302 302 302 302 301 301 301 300 301 298 296 298 298 299 299 300 304 306 302 301 301 295 296 298 297 299 303 303 300 298 299 302 302 301 301 300 300 300 299 299 298 298 297 293 292 294 293 292 291 291 290 289 288 287 286 286 285
307 308 307 307 308 307 308 308 308 308 306 310 313 307 301 301 300 299 299 299 299 299 306 308 301 300 304 305 307 306 304 306 305 304 302 301 301 299 299 300 298 297 296 296 301 300 297 305 307 300 300 300 294 296 300 298 297 300 300 298 297 300 302 300 299 299 299 298 298 299 298 297 298 298 295 294 294 293 292 291 291 290 288 287 286 285 285 285
308 308 306 306 307 306 308 308 306 307 308 310 312 308 303 303 301 299 301 299 298 302 306 305 300 301 303 302 304 304 303 304 304 303 302 301 300 297 298 299 298 298 297 297 302 301 297 302 305 300 300 299 298 299 300 300 299 298 299 299 299 299 299 298 298 298 298 298 298 298 297 297 299 298 295 294 293 292 291 291 290 288 287 286 285 285 284 284
309 308 306 306 307 306 306 306 306 309 310 308 308 306 302 303 302 299 301 300 299 301 303 303 302 303 303 301 301 302 303 304 303 303 302 300 299 299 297 296 298 299 297 297 300 299 298 300 301 302 302 299 300 299 297 298 299 300 302 300 298 299 298 296 296 297 297 298 297 297 296 297 298 296 294 294 292 291 291 290 288 287 285 285 285 284 284 284
308 308 306 306 307 306 305 308 306 305 308 305 303 304 302 302 301 299 300 301 300 299 301 303 303 303 303 303 301 300 304 306 304 303 302 299 299 300 297 294 295 297 297 299 300 298 299 300 300 302 302 300 299 297 294 297 297 298 301 298 296 298 298 297 297 296 296 297 297 296 296 296 296 296 294 293 291 290 290 288 286 285 285 285 284 284 284 284
308 308 306 305 307 306 306 308 300 299 308 307 302 303 303 302 300 299 299 300 300 299 300 301 302 302 303 303 302 302 304 305 305 303 301 299 300 300 297 293 292 293 296 299 299 296 297 299 300 302 301 299 298 294 292 294 294 296 296 295 295 296 296 298 297 295 294 295 295 295 295 295 295 295 293 292 290 289 288 286 285 285 284 284 284 284 284 284
306 306 305 305 307 305 307 309 301 302 306 302 299 300 301 301 299 300 300 300 300 300 301 302 301 301 301 301 303 304 301 301 302 302 301 300 299 297 296 294 293 292 296 299 298 295 296 298 300 300 299 297 296 293 291 292 294 297 294 292 293 294 294 295 294 292 292 293 294 293 293 294 294 293 292 291 289 287 286 285 285 285 284 284 284 284 284 284
304 305 305 306 307 306 310 312 308 307 304 300 300 301 301 300 300 302 302 301 300 301 302 303 300 300 300 299 302 303 300 300 300 299 300 301 299 296 295 295 294 294 296 298 298 296 297 299 300 299 298 297 296 296 295 295 296 297 293 291 292 292 292 292 291 290 291 293 293 292 291 293 293 293 291 289 288 286 285 285 284 284 284 284 284 284 284 284
305 306 304 305 306 305 307 306 306 310 308 305 304 302 302 302 300 301 302 300 299 299 300 301 299 300 300 298 302 304 301 299 300 299 299 300 299 296 295 296 295 294 295 295 295 296 297 299 301 300 297 296 297 297 297 297 297 295 292 291 291 291 291 292 291 290 291 292 291 291 291 291 291 291 289 288 286 285 285 284 284 284 284 284 284 284 284 284
307 308 305 306 305 304 303 300 302 308 309 310 308 301 301 304 300 299 300 300 300 299 300 300 298 299 302 301 304 307 302 298 298 300 301 301 300 295 294 296 296 295 296 295 294 296 299 299 301 301 298 297 299 298 297 298 297 295 294 291 291 291 291 292 292 290 291 291 290 291 291 290 290 289 287 286 285 284 284 284 284 284 284 284 284 284 284 284
309 308 306 307 304 304 305 302 300 303 303 307 307 300 302 306 301 300 301 300 300 299 299 299 297 300 304 304 304 305 301 298 298 299 300 300 299 295 293 295 296 295 296 295 293 296 300 299 298 299 299 298 299 297 296 296 295 296 295 291 291 291 290 291 291 290 290 290 290 290 289 289 288 287 286 285 284 284 284 284 284 284 284 284 283 284 284 284
309 306 302 305 305 305 308 305 300 299 299 303 303 300 306 310 305 303 303 300 299 299 299 301 299 300 303 301 301 301 301 303 302 299 298 298 299 298 296 295 295 295 295 295 293 294 298 298 295 296 298 298 297 296 295 295 295 295 294 291 291 291 290 290 290 289 290 290 289 289 288 287 286 285 285 285 284 284 284 284 284 284 284 284 283 284 284 284
306 305 301 303 304 301 302 301 299 299 299 302 304 303 306 309 305 301 300 301 302 300 299 302 301 301 301 300 300 301 301 304 303 300 299 299 299 300 299 297 295 294 294 295 293 291 295 300 297 294 296 297 296 296 295 295 295 294 292 290 290 291 290 290 290 289 289 289 288 287 286 285 285 285 285 284 284 284 284 284 284 283 283 284 284 284 284 284
306 306 302 303 301 298 299 299 299 304 304 303 306 303 302 306 305 300 298 300 303 302 300 302 302 300 299 300 303 302 299 300 301 300 299 299 300 300 299 297 297 297 295 295 295 292 294 299 298 295 296 297 297 297 295 294 294 293 291 290 290 291 290 289 289 288 288 287 286 285 284 284 285 285 284 284 284 284 284 284 283 283 283 284 284 284 284 285
307 306 304 306 302 297 299 297 297 308 312 305 304 303 302 304 303 300 299 299 301 303 301 301 302 300 296 299 303 301 297 297 299 298 297 297 298 298 296 294 296 299 299 296 296 296 297 298 297 296 297 297 296 295 293 292 293 292 292 291 290 290 289 288 288 287 286 286 285 284 284 284 284 284 284 284 284 284 284 283 283 283 283 284 284 284 284 284
307 306 305 308 305 297 296 296 299 309 309 300 300 301 302 302 299 298 301 300 299 301 301 299 299 300 301 301 300 299 298 297 297 297 297 296 296 295 295 294 294 297 299 296 294 292 293 297 298 296 297 297 295 293 292 291 292 293 292 291 290 289 287 286 286 286 285 285 284 284 283 284 284 284 284 284 284 283 284 283 283 283 283 284 284 284 284 283
Wind_Speed
4 5 6 4 2 3 3 3 3 3 2 2 2 2 3 6 7 8 9 10 12 13 13 12 12 12 12 12 12 11 8 9 10 10 13 17 17 15 13 10 7 7 7 7 7 6 4 4 4 4 4 2 1 2 3 3 4 3 2 2 1 2 3 4 6 5 2 3 5 6 8 4 7 12 11 10 10 13 17 19 18 17 18 19 20 21 22 24
5 7 6 4 3 4 4 3 3 3 2 2 3 3 5 6 6 7 8 9 10 12 12 11 11 11 12 11 12 12 7 6 9 14 18 17 16 15 14 11 7 7 8 8 7 6 3 3 2 1 3 3 2 2 3 3 3 2 3 2 2 4 4 4 5 4 2 6 9 10 10 5 7 10 9 7 10 11 12 17 16 15 20 22 20 21 22 23
6 7 5 4 4 4 4 3 3 3 3 3 4 4 6 6 5 6 7 7 9 11 11 11 11 11 11 11 11 11 5 5 11 16 17 15 15 15 14 11 7 7 8 9 8 6 6 6 5 4 3 4 3 4 4 3 2 2 3 1 4 5 3 5 5 5 7 10 10 10 8 6 9 10 7 5 11 12 7 9 12 16 27 30 27 24 23 23
7 6 5 5 5 4 4 4 4 4 4 4 4 5 6 5 4 5 5 6 7 11 10 10 11 11 12 11 11 9 2 4 13 16 14 14 15 14 13 11 8 7 7 8 7 5 4 5 5 4 5 4 3 4 3 3 1 2 4 2 4 3 1 5 6 9 11 10 10 10 8 9 10 8 7 5 7 9 9 12 15 21 30 31 30 26 23 22
8 6 5 5 4 4 4 4 4 5 5 5 5 6 6 5 4 5 5 5 6 9 10 10 11 11 11 10 11 9 2 2 10 13 13 14 14 13 12 11 8 6 7 7 6 5 4 5 4 4 5 4 3 3 2 3 3 2 2 2 2 3 1 7 11 13 14 12 10 9 8 9 11 9 8 4 3 7 14 21 23 27 29 29 30 28 24 22
7 6 6 5 5 5 5 5 5 5 5 6 6 6 6 5 4 5 5 4 6 9 10 10 11 12 10 8 11 10 7 4 9 13 13 12 12 13 12 12 10 7 8 8 6 5 4 5 4 3 3 3 2 3 2 3 3 0 2 3 2 1 2 10 15 14 15 12 9 7 8 10 10 9 7 6 7 12 20 25 27 28 27 27 27 26 23 21
7 6 6 6 6 6 6 6 6 6 6 7 6 6 6 5 5 5 5 5 7 9 10 11 12 13 9 6 10 15 15 10 12 13 12 11 9 11 10 11 12 9 8 7 6 4 4 6 6 5 5 4 1 2 4 4 3 3 2 3 4 2 6 12 13 13 13 9 7 7 8 10 8 7 8 10 11 18 25 25 24 22 20 20 20 19 19 18
7 7 7 7 8 8 8 7 7 7 7 6 6 6 6 5 6 6 7 7 8 10 11 11 14 15 8 5 8 17 18 13 14 14 12 9 7 8 9 10 11 9 7 7 8 6 5 8 8 5 3 3 2 1 4 4 4 4 2 3 3 4 8 12 11 15 13 8 12 9 6 9 8 7 8 9 17 23 24 18 15 14 14 16 17 20 20 21
8 8 8 8 9 8 8 7 7 7 6 6 6 6 6 6 7 7 8 8 9 10 11 11 13 16 10 3 6 13 14 13 15 15 12 8 5 6 7 8 10 10 11 12 12 9 8 9 8 4 3 3 3 3 3 4 2 1 4 4 4 4 8 12 12 19 12 7 18 11 8 12 8 6 4 9 24 24 18 17 20 22 25 28 29 31 31 30
9 8 8 9 9 9 8 8 7 6 6 6 6 7 7 7 8 7 8 8 9 9 11 11 10 15 14 9 11 10 10 13 15 15 12 8 5 5 6 8 11 12 13 13 11 11 12 11 8 4 5 5 3 3 3 4 1 4 7 4 4 3 5 15 14 21 12 6 22 14 8 13 4 2 3 14 26 20 18 22 25 29 32 34 35 36 36 36
8 8 9 9 9 8 8 7 7 6 6 6 7 7 7 7 6 6 7 8 9 8 9 9 8 11 15 20 20 11 11 15 16 13 10 8 6 5 5 9 11 12 12 12 11 12 11 11 10 6 3 3 3 2 3 4 1 3 7 3 6 4 3 17 16 21 14 4 23 17 4 8 3 3 6 17 23 16 18 23 26 30 32 35 37 38 38 40
8 9 10 9 9 8 8 7 7 6 6 6 7 7 6 6 5 6 7 7 8 7 8 8 7 7 11 22 23 15 15 17 16 12 9 9 9 6 6 8 9 9 9 11 12 13 13 10 10 11 5 2 2 2 2 6 2 1 8 1 8 7 3 15 15 17 13 5 25 18 2 7 3 3 11 18 19 13 19 24 27 30 32 36 38 39 40 41
9 10 10 9 8 8 8 7 7 6 6 6 6 6 6 5 5 6 7 8 8 7 7 6 6 7 10 15 18 17 16 18 15 8 6 8 9 7 6 5 5 7 7 10 11 12 17 12 8 15 15 5 3 3 2 6 5 1 7 3 5 8 3 12 14 17 12 6 24 16 1 6 5 4 13 19 18 14 19 24 28 31 34 37 37 39 42 43
10 10 9 9 8 8 8 7 6 6 6 6 6 5 4 4 5 6 8 10 10 8 7 5 4 7 10 9 13 18 17 16 11 4 4 6 5 5 5 4 4 5 7 10 9 10 14 14 14 17 19 12 3 3 3 6 7 2 4 4 4 5 6 11 12 15 11 6 21 14 3 5 8 7 16 19 16 14 19 24 27 31 34 36 36 38 41 44
11 10 9 8 8 8 7 7 6 6 5 5 5 4 4 3 3 5 8 9 11 10 7 6 5 5 9 8 10 17 17 15 12 8 7 6 4 4 5 5 5 6 8 9 10 11 9 11 20 19 13 14 7 3 4 4 5 4 4 4 4 4 7 11 7 11 9 6 15 11 2 5 7 8 17 18 14 14 18 23 26 30 33 34 34 35 38 42
10 9 8 8 7 8 7 6 5 5 6 7 8 8 5 3 2 3 5 6 9 11 7 6 7 8 9 7 9 16 21 21 17 11 9 10 7 5 4 5 8 10 11 11 9 9 8 9 17 18 15 15 8 3 4 5 5 5 5 3 5 5 7 9 3 8 9 4 8 8 1 4 5 11 21 17 14 15 18 22 26 30 32 32 33 33 36 41
10 8 8 7 7 7 6 4 6 8 12 15 18 19 16 11 5 1 2 4 6 10 12 9 6 9 12 12 12 16 21 23 19 12 8 11 11 7 4 5 9 11 11 12 10 8 10 11 10 10 14 11 4 3 5 6 5 4 4 2 3 2 4 6 5 7 12 5 5 5 2 5 7 13 20 15 16 20 21 24 27 30 32 33 34 33 36 41
9 8 7 7 6 6 6 7 9 12 15 17 20 23 25 25 17 9 5 3 4 5 10 12 7 6 9 17 17 14 16 21 21 14 9 9 12 12 8 6 5 4 6 11 15 15 12 11 7 2 6 7 6 7 6 1 1 2 3 2 3 3 3 5 6 7 11 7 5 6 3 8 11 11 17 19 24 26 24 25 28 30 33 35 35 34 35 38
8 7 6 6 6 7 8 10 11 11 11 11 12 14 17 23 25 23 20 17 13 8 5 11 11 4 1 14 20 13 12 21 22 17 11 7 11 12 11 9 7 6 7 7 13 18 12 8 7 4 5 7 5 3 3 3 5 4 3 2 2 4 5 7 7 4 8 7 5 4 4 9 12 11 16 21 29 32 28 28 29 30 33 34 33 33 33 35
6 6 5 6 7 8 8 8 7 5 5 4 3 4 5 9 13 18 26 29 25 17 11 13 13 7 1 11 22 16 11 18 24 23 16 9 7 8 9 8 12 17 10 2 5 10 9 8 6 2 4 5 5 3 3 2 3 4 3 2 3 4 6 8 6 3 6 5 4 3 5 8 8 10 11 21 32 31 27 28 28 28 30 31 32 32 32 33
5 5 5 6 7 7 7 7 6 5 5 4 3 4 4 4 4 7 16 22 20 18 19 19 17 14 9 12 22 20 13 15 24 27 22 14 6 5 11 9 10 13 7 2 1 4 7 9 4 4 6 4 3 2 3 3 3 3 3 2 4 3 6 9 4 3 6 5 3 3 8 9 7 9 10 22 27 22 22 23 24 25 27 29 31 32 33 33
4 4 5 6 6 8 8 8 9 9 7 7 8 10 11 9 9 9 11 13 14 16 17 20 22 21 17 16 18 21 22 20 23 29 26 19 13 8 11 13 9 5 6 4 3 5 7 5 5 5 3 2 2 3 3 4 4 2 1 1 5 2 5 9 4 2 3 2 4 3 7 8 5 7 12 20 18 16 22 23 22 24 26 28 30 31 33 36
4 4 5 6 7 9 9 9 9 9 8 7 7 9 9 8 6 6 7 7 10 15 16 17 23 26 22 19 17 19 27 23 19 28 29 21 17 13 10 9 6 4 7 7 5 5 5 2 4 2 1 4 2 5 5 4 3 1 1 2 5 4 3 4 3 4 5 1 3 4 4 4 1 6 11 16 16 19 22 23 24 26 25 25 27 29 32 35
5 5 7 8 9 10 9 8 8 8 9 9 8 6 5 3 3 3 3 4 4 11 16 15 20 26 24 22 17 13 21 23 19 26 28 21 15 10 8 5 5 5 4 4 8 7 2 2 2 3 4 4 2 5 6 5 4 2 2 1 5 5 2 4 6 8 7 1 1 4 3 2 1 5 7 8 13 17 20 23 25 26 26 26 28 31 33 34
6 8 9 9 10 9 7 5 7 8 9 9 8 5 3 1 1 3 1 3 2 9 15 13 15 22 23 24 18 6 11 20 23 26 23 20 15 5 5 6 5 5 2 1 7 5 1 3 3 3 5 6 5 4 4 3 3 4 3 4 5 5 6 7 7 7 5 3 2 3 4 4 1 6 5 2 6 11 15 20 21 23 26 28 30 32 33 35
7 9 10 9 10 8 4 3 5 7 8 8 8 6 3 2 0 2 1 4 3 8 12 11 11 16 20 25 19 4 5 11 18 25 21 17 16 7 4 5 5 3 2 2 4 2 1 2 2 3 3 5 6 3 1 2 3 5 2 3 3 3 6 6 4 2 3 4 3 3 2 5 2 4 3 2 6 8 10 14 16 20 24 26 27 29 32 34
7 8 9 9 9 6 2 3 5 6 7 8 8 6 2 2 1 1 1 5 4 5 8 9 9 12 14 21 22 7 1 10 11 22 23 14 13 10 5 3 4 3 1 2 3 1 1 4 6 5 4 5 6 4 2 3 4 3 1 1 3 5 5 3 1 1 1 4 4 3 2 3 4 1 4 3 7 8 9 9 13 18 22 24 26 27 30 32
6 8 9 9 8 4 2 3 4 6 9 9 8 5 2 2 1 1 4 5 4 4 5 7 7 12 10 13 23 15 4 10 8 15 23 15 10 11 7 2 3 1 2 4 3 1 2 4 5 4 5 5 4 3 3 4 2 5 3 3 4 4 2 2 2 1 1 2 4 4 1 2 6 3 3 1 5 8 8 7 9 16 20 23 26 27 29 31
6 8 8 8 7 4 1 3 6 7 9 9 7 4 3 3 1 1 6 3 3 4 4 7 7 14 15 9 17 18 10 12 8 11 20 17 10 8 6 3 5 4 4 7 4 2 1 1 1 1 4 4 4 4 3 5 1 8 5 4 3 3 3 3 2 0 1 2 4 6 0 1 7 4 1 2 5 5 6 4 6 14 20 22 25 28 30 33
6 7 7 7 7 5 5 7 8 8 9 9 6 3 3 4 2 4 5 0 2 4 5 8 5 12 17 9 10 17 11 10 11 13 18 21 19 15 9 3 5 4 4 8 4 1 2 1 1 1 2 3 5 4 2 5 5 9 6 4 3 4 3 3 1 2 4 4 6 5 1 1 5 4 1 1 2 0 3 4 4 11 19 21 24 27 30 34
5 5 6 6 7 6 7 8 8 7 8 8 5 2 2 3 4 7 3 2 2 5 6 6 4 7 12 6 5 11 7 7 14 13 13 15 20 21 12 4 6 6 4 6 6 5 4 1 1 1 2 4 4 3 2 3 5 5 5 5 5 4 3 4 4 4 4 6 7 4 1 1 4 3 1 1 1 2 2 3 5 7 15 21 23 24 28 33
5 5 6 6 7 7 7 7 7 7 7 5 4 3 0 3 5 3 1 4 2 4 3 2 4 5 6 4 3 7 4 5 10 9 6 5 8 11 9 4 3 5 5 5 5 6 2 1 4 3 1 4 4 3 4 4 5 5 5 6 6 4 5 5 5 3 2 8 6 1 0 1 4 4 1 4 2 1 1 3 6 8 11 19 22 22 27 33
6 6 6 6 7 8 8 8 8 6 4 4 3 2 4 6 2 1 3 4 2 2 2 2 4 4 3 5 5 5 3 3 7 6 3 2 4 3 4 4 2 1 2 3 3 5 3 4 7 3 1 4 4 3 4 4 5 5 3 4 5 3 5 5 5 3 5 9 5 2 1 3 4 2 3 4 3 2 3 6 9 10 12 18 23 25 29 35
5 5 6 7 7 7 7 6 5 3 3 3 1 3 8 6 1 1 2 3 1 3 2 1 5 4 3 4 3 4 2 2 5 6 5 4 5 4 4 7 7 3 1 2 2 3 3 4 5 3 3 5 5 3 1 2 2 3 1 4 4 2 1 3 4 4 7 10 8 4 1 5 6 2 5 5 4 1 6 10 12 14 16 20 27 32 36 40
2 2 4 5 5 6 5 3 2 2 1 1 5 7 7 2 2 0 1 4 2 3 3 2 3 4 4 3 3 2 2 2 3 4 6 4 3 3 3 5 7 4 2 3 2 1 2 3 5 3 3 2 4 1 2 3 1 3 2 4 3 0 3 2 4 4 4 6 6 4 2 3 2 2 2 1 2 5 7 11 14 17 22 30 37 42 48 51
2 1 2 4 5 5 3 2 1 2 1 4 8 7 3 2 2 2 1 2 1 1 3 4 5 5 4 5 4 4 2 2 2 4 4 3 2 2 2 3 4 4 2 3 0 1 2 3 6 5 3 1 3 2 1 2 2 2 3 3 4 3 6 1 4 2 2 4 4 3 5 4 1 2 3 3 6 6 8 13 19 24 32 39 41 45 51 53
5 3 5 7 10 11 5 3 4 3 5 10 10 3 2 1 2 3 1 1 1 1 3 3 3 3 3 3 4 7 6 3 3 4 3 1 1 2 3 3 2 3 1 2 1 1 1 4 6 4 4 4 2 1 1 3 2 2 3 4 3 1 4 3 2 3 4 4 4 4 10 10 4 2 2 4 8 9 9 15 23 29 33 35 38 44 48 52
9 9 10 11 13 12 9 10 8 6 11 13 8 3 2 1 2 3 2 1 1 1 5 3 1 1 0 1 3 6 6 5 4 4 2 2 2 2 3 3 1 4 3 1 0 0 3 3 6 2 3 7 4 4 3 4 3 3 1 2 2 2 3 2 1 3 4 5 5 7 12 9 3 3 2 5 10 12 13 15 18 22 27 32 39 45 50 57
5 8 13 14 12 12 10 7 6 9 14 10 2 2 1 2 2 2 2 1 0 2 4 1 1 2 1 1 1 4 3 3 3 3 2 2 2 2 2 1 2 7 6 1 1 1 2 2 4 5 4 6 5 4 3 5 4 3 3 3 3 1 3 2 1 1 2 5 6 9 12 7 1 3 2 6 10 12 16 16 14 19 28 37 43 49 56 60
2 5 11 12 11 13 8 5 8 12 12 4 3 3 1 1 1 1 2 2 0 2 2 1 1 3 1 0 0 2 2 2 1 2 2 2 1 1 2 1 3 6 6 2 3 1 1 2 3 6 6 5 3 2 1 1 2 4 4 4 4 1 1 2 1 1 1 3 5 7 11 7 1 2 2 5 10 15 19 16 14 23 36 45 50 56 60 60
4 5 8 8 10 9 7 10 13 12 6 2 2 2 0 1 1 2 3 2 2 3 2 3 3 2 0 2 1 1 1 2 1 1 1 2 2 1 2 3 3 5 5 3 2 1 1 1 2 5 6 4 3 3 0 3 4 3 3 1 0 1 2 3 4 2 2 1 3 5 9 8 1 2 2 4 12 18 19 16 18 31 43 51 58 62 61 60
7 5 6 10 11 7 9 12 10 6 4 4 4 3 2 1 2 3 3 2 2 3 3 3 2 2 2 1 0 1 0 1 1 2 0 1 1 0 3 6 4 3 2 1 1 1 1 2 0 4 4 3 4 3 4 9 11 8 4 2 2 2 4 2 4 4 1 2 4 4 8 8 0 4 2 10 19 21 22 24 27 36 48 55 59 62 61 59
13 9 5 7 9 8 11 9 7 5 5 4 3 4 3 2 3 3 3 3 2 2 3 2 1 2 1 1 0 1 1 0 1 0 1 3 2 2 4 6 5 2 1 0 1 2 1 2 2 4 5 2 3 4 5 7 9 7 4 3 2 2 2 4 3 2 3 4 2 2 9 9 1 2 11 23 26 23 26 34 37 42 52 57 58 60 59 58
20 18 13 7 1 3 7 5 1 3 2 2 5 5 4 4 5 4 2 4 3 1 2 1 1 3 1 1 1 1 1 0 1 1 1 3 2 2 3 5 4 2 1 1 0 3 2 1 2 4 7 6 5 4 3 2 3 4 2 3 3 3 3 1 1 3 2 4 1 3 10 11 6 10 21 25 21 19 29 41 44 46 51 54 57 59 58 58
14 15 19 17 9 8 9 7 7 6 3 3 5 4 3 4 5 5 3 4 5 4 3 1 0 1 1 1 1 1 1 1 0 1 1 1 2 2 3 3 1 2 2 1 1 2 1 1 3 4 3 6 6 6 6 5 3 2 2 2 3 3 4 2 1 1 3 6 7 5 9 15 17 19 22 19 14 16 28 42 48 50 52 55 56 56 58 58
6 5 10 17 19 20 18 12 10 8 4 4 4 3 3 2 2 4 5 4 5 6 5 3 1 1 2 3 2 3 2 1 1 1 1 2 3 2 2 2 2 3 3 1 2 2 3 1 2 5 3 5 6 9 7 4 4 4 1 3 2 1 3 3 1 1 5 10 10 7 10 19 23 23 21 17 14 15 23 36 45 49 53 55 55 56 57 55
6 3 2 6 11 16 16 12 10 8 4 4 3 1 2 1 2 3 4 3 4 4 4 5 4 2 1 3 2 2 3 2 2 1 1 3 4 2 2 1 2 4 2 1 3 2 4 2 1 3 5 7 8 11 9 5 5 4 1 3 1 1 1 4 1 5 8 8 9 11 17 21 22 23 20 16 16 16 21 34 44 49 53 55 56 58 57 55
6 4 5 5 3 4 6 7 10 11 7 4 3 1 2 3 3 2 2 2 3 3 2 3 5 3 2 1 2 1 4 4 3 1 1 2 3 3 3 0 1 4 2 2 3 3 4 1 0 3 5 9 9 11 8 4 4 2 5 3 1 1 2 3 3 9 9 7 11 19 23 21 20 20 17 17 23 25 29 42 50 52 57 58 57 57 56 54
13 10 7 8 7 5 5 4 7 12 9 5 3 2 2 4 3 0 2 2 3 4 3 1 4 5 5 4 3 2 1 1 2 4 1 1 2 2 2 0 0 4 4 2 3 3 3 1 1 2 5 9 9 7 5 4 4 1 5 3 2 3 3 5 6 9 10 12 16 19 22 20 15 13 16 27 38 39 41 50 53 52 57 57 54 55 53 47
12 10 11 15 13 9 7 3 3 7 7 6 4 2 1 3 2 1 1 2 0 3 3 2 4 5 4 4 3 3 4 6 5 5 4 2 2 1 1 1 1 4 6 3 2 4 4 4 1 3 3 7 5 3 7 7 4 2 3 1 2 3 4 6 8 8 10 15 18 18 20 16 11 16 27 39 46 42 39 45 48 50 56 56 52 50 46 43
15 16 18 19 10 8 7 4 3 4 4 5 2 1 1 1 2 2 1 1 2 2 1 1 4 3 2 2 3 4 6 7 7 9 7 3 2 2 1 1 0 3 6 3 2 4 5 4 2 4 5 6 2 5 13 10 3 4 1 3 5 6 7 8 8 7 11 17 20 19 15 10 11 22 32 38 40 37 35 38 44 50 57 58 51 45 45 50
18 16 13 13 7 6 6 4 4 5 2 2 1 3 2 3 5 5 2 1 2 2 2 3 3 3 1 2 2 3 5 6 8 10 8 6 4 1 2 2 4 3 2 2 2 2 2 2 3 4 4 7 8 11 14 9 5 4 2 1 5 11 13 13 10 10 13 13 13 14 11 10 17 24 25 28 32 31 32 39 45 49 53 51 45 45 51 58
Wind_Direction
163 146 134 124 105 89 86 83 82 96 103 108 55 27 5 357 5 14 29 48 56 56 50 47 42 37 36 34 30 23 24 29 27 41 43 31 19 6 1 354 348 352 350 345 338 327 303 291 279 260 231 203 54 88 102 89 120 124 97 90 286 218 206 189 187 206 192 283 287 316 338 323 302 318 319 309 280 275 288 288 285 280 282 292 301 306 303 303
142 126 125 121 110 97 94 99 89 84 80 65 31 14 358 359 13 24 41 61 61 48 38 38 34 29 25 22 19 17 30 40 36 44 38 27 17 8 3 356 348 349 352 354 357 2 14 22 23 66 186 165 71 99 119 83 88 93 106 101 241 206 210 206 208 222 227 294 296 311 325 305 289 307 320 312 290 296 300 303 312 310 313 317 316 316 311 306
119 121 128 118 109 101 107 106 80 70 59 41 22 11 4 9 24 32 50 72 61 38 32 33 27 22 14 9 9 11 35 50 37 36 27 22 18 12 8 5 355 347 353 1 6 17 34 44 51 65 118 121 82 115 115 63 66 102 105 97 245 213 246 263 263 277 286 300 303 313 324 301 299 310 308 295 301 309 304 312 327 322 320 322 322 322 317 311
125 131 129 115 111 112 118 99 75 64 50 36 24 17 14 18 29 38 54 80 56 29 27 26 20 15 7 2 1 1 58 64 29 23 14 14 16 11 12 12 5 355 354 1 9 23 38 41 47 69 96 94 81 112 97 37 62 155 138 182 218 175 292 318 333 324 318 312 300 309 319 306 314 318 294 302 320 316 318 322 323 316 316 320 321 321 319 315
134 134 121 117 117 118 112 90 71 58 47 37 26 20 20 24 40 47 54 77 44 21 22 21 16 10 2 3 6 5 110 95 16 15 6 7 12 7 11 16 12 0 355 360 12 31 39 32 44 71 79 74 52 69 72 38 63 159 185 200 168 130 270 330 345 332 324 317 302 306 309 305 316 314 295 290 272 294 320 325 320 315 315 315 314 314 314 311
134 125 119 120 113 111 101 86 71 58 47 34 26 19 22 35 60 53 54 65 31 19 21 20 17 11 6 20 28 37 97 90 6 13 5 359 5 5 9 15 17 10 6 7 11 35 42 33 48 70 75 66 39 65 80 26 42 174 306 8 46 119 279 322 334 335 330 318 305 301 298 304 313 316 310 283 276 312 329 327 319 314 312 310 309 312 313 310
126 120 120 116 107 104 93 87 72 58 45 34 28 24 35 53 63 56 62 59 30 27 27 27 24 16 20 57 52 55 72 58 14 13 3 355 360 4 10 16 21 17 12 16 22 45 48 38 55 79 85 61 29 76 47 9 46 98 299 359 32 345 313 327 334 345 347 341 333 323 303 305 314 316 310 307 324 338 334 328 322 318 319 317 319 325 327 328
122 121 118 109 105 101 92 85 69 56 42 31 27 35 55 64 68 73 72 55 34 36 33 35 32 24 36 77 58 53 53 33 10 6 356 353 357 6 16 20 27 22 23 41 43 54 43 39 49 62 79 63 76 49 22 12 48 92 279 316 12 334 335 349 359 359 3 24 3 346 314 315 315 299 284 325 350 347 341 346 356 4 14 16 15 14 14 11
122 118 112 109 107 101 92 79 63 53 37 29 32 49 66 70 84 85 64 45 37 40 36 40 38 33 44 77 62 50 35 10 359 354 353 1 8 19 25 29 42 40 43 49 48 50 45 43 39 47 95 106 93 33 26 32 17 223 282 306 325 321 1 12 16 9 14 33 6 354 328 335 327 307 281 355 354 353 11 38 45 49 51 49 46 41 39 35
119 113 113 113 108 99 85 71 57 46 37 35 43 59 74 84 94 75 46 38 36 36 35 42 46 44 48 62 71 55 18 2 351 346 357 14 31 42 35 43 52 46 45 47 52 58 56 52 42 76 105 92 89 38 44 41 340 277 299 289 322 309 23 17 17 12 15 25 5 356 325 337 335 6 346 353 357 8 40 54 55 57 55 50 49 46 44 42
116 114 118 114 105 92 76 66 53 42 42 46 58 70 81 86 82 51 37 35 34 35 38 45 56 55 47 51 64 54 10 2 350 350 11 32 53 67 52 53 51 44 43 45 59 64 59 59 55 81 111 54 78 72 66 29 292 303 327 269 336 339 45 16 15 4 6 19 358 351 318 348 29 59 347 350 3 21 42 52 55 53 52 49 49 47 47 45
119 120 119 110 98 84 72 64 51 48 54 61 67 69 72 74 63 47 41 39 41 44 47 54 61 60 45 46 52 39 12 6 356 359 19 38 52 68 64 55 47 40 39 47 66 65 56 60 51 53 61 152 120 82 88 15 348 352 22 49 339 360 62 16 13 356 3 10 352 353 352 355 354 356 353 0 10 28 45 50 48 48 49 48 49 48 47 46
121 121 115 105 93 80 72 62 57 63 63 63 59 55 63 67 62 55 49 49 50 48 50 63 67 57 49 49 43 29 16 11 7 3 18 36 48 61 66 58 46 35 37 53 71 66 55 56 46 51 55 82 131 83 114 14 17 44 27 59 352 4 8 11 13 358 10 10 351 359 91 334 302 326 4 8 12 28 44 45 41 45 46 45 47 47 46 45
122 120 111 100 90 78 70 62 63 63 55 49 38 41 54 60 70 67 64 62 54 49 48 53 65 55 55 62 39 25 18 16 22 45 41 34 40 61 77 66 47 35 48 59 68 69 57 48 47 54 45 40 95 105 68 15 22 14 355 32 33 14 325 351 16 12 18 353 352 7 157 310 299 326 5 9 14 27 37 40 39 43 44 43 44 44 43 44
123 118 110 99 87 75 67 63 59 50 41 35 30 34 34 47 83 76 70 63 49 45 49 60 73 67 57 57 30 19 21 28 39 52 45 39 46 83 90 66 65 65 64 66 67 66 57 41 47 50 31 27 57 81 20 360 15 26 16 358 358 16 322 329 19 38 23 315 351 22 158 297 286 311 354 7 18 27 37 40 40 41 41 41 42 42 42 43
126 119 109 96 81 70 65 58 51 52 63 67 63 56 42 44 102 95 72 49 46 47 54 80 80 71 54 33 17 18 25 30 31 35 41 47 58 85 91 77 84 77 70 71 70 64 52 47 52 47 33 30 39 66 40 17 1 13 40 352 315 360 339 325 1 44 28 326 349 31 151 290 272 309 341 5 22 27 43 42 38 37 35 40 43 42 42 41
127 117 105 89 76 71 64 61 73 87 92 87 78 69 64 59 54 114 59 39 67 62 59 75 90 80 54 26 15 15 21 27 28 37 47 49 52 60 89 111 96 79 73 69 55 54 50 45 54 41 34 35 12 55 60 17 348 343 27 23 295 317 317 322 318 1 23 28 348 11 203 258 269 302 328 359 22 28 43 40 37 38 39 47 49 44 42 40
127 114 102 87 80 75 74 88 97 99 97 90 82 75 69 64 62 73 83 90 109 74 52 48 59 95 46 17 11 6 18 28 30 38 42 48 53 57 82 108 108 85 69 59 36 36 46 41 56 66 30 29 12 44 68 12 270 283 331 1 316 307 275 295 296 340 12 13 342 350 317 298 298 312 342 10 31 39 46 45 45 45 47 51 50 46 41 37
128 116 102 88 84 84 93 102 101 98 96 94 86 76 72 70 69 70 73 76 73 72 46 31 38 98 296 360 11 17 32 33 31 36 39 51 62 66 83 84 76 67 58 51 23 26 40 38 46 50 6 359 356 56 127 195 180 202 237 188 255 296 287 276 273 324 1 341 324 346 325 302 312 340 2 23 46 50 49 51 50 47 47 46 44 41 35 32
131 115 100 91 95 100 107 106 96 91 86 88 75 61 76 74 66 61 64 67 68 71 66 49 48 60 12 1 16 27 40 36 33 35 34 39 70 72 65 60 57 56 49 27 1 17 41 49 44 20 305 299 287 236 193 187 156 160 160 202 244 244 286 290 273 303 0 348 289 316 313 296 332 4 14 41 52 49 44 48 47 44 44 40 36 33 29 27
130 116 108 103 110 113 110 103 85 73 65 65 69 75 81 77 80 72 67 67 67 67 59 51 49 44 38 20 20 24 32 38 35 35 34 33 60 63 37 39 51 44 13 294 359 360 46 57 21 281 260 259 282 236 158 113 114 130 142 266 294 234 271 294 286 301 14 25 275 332 335 317 13 29 28 52 57 47 41 46 43 41 41 36 33 28 24 21
136 128 121 114 123 121 113 104 83 68 65 76 86 86 86 89 95 92 87 81 67 59 50 44 41 38 34 28 23 24 31 33 25 27 30 34 56 66 43 50 62 33 347 6 41 7 45 50 316 291 246 148 65 56 100 107 113 108 93 352 322 302 280 296 294 285 11 21 279 346 347 322 29 60 47 55 67 62 51 50 44 40 37 33 30 25 20 17
147 138 133 131 133 129 120 105 78 63 65 74 84 87 89 91 91 88 95 103 72 49 40 37 33 28 27 24 18 27 39 36 12 13 18 26 47 54 51 56 64 44 7 27 68 53 55 13 320 345 112 131 83 21 49 63 75 109 26 25 318 322 337 306 302 319 328 292 265 313 319 302 47 89 66 58 66 66 54 50 45 40 37 32 28 24 20 16
152 146 147 145 141 137 126 98 62 56 58 56 61 71 87 90 112 128 105 111 88 36 30 31 26 23 20 14 9 29 48 42 18 9 13 22 35 41 48 57 66 53 5 37 79 86 114 279 335 43 46 92 97 9 40 44 9 288 225 307 299 304 280 247 280 316 327 345 294 324 328 280 170 89 74 54 56 55 44 41 39 33 31 27 24 22 18 15
143 148 153 150 147 142 126 86 46 47 43 39 37 37 57 55 155 180 150 91 64 4 15 20 18 18 12 8 10 51 64 42 24 10 10 24 30 45 56 43 52 36 304 116 75 74 67 310 326 26 25 45 75 39 33 49 359 313 251 228 257 284 275 267 289 320 356 354 313 26 6 295 182 88 86 43 47 48 39 38 32 26 24 22 20 17 13 11
134 147 152 151 153 146 120 66 35 34 29 25 15 14 28 1 76 166 122 72 29 342 2 7 8 11 7 7 10 64 80 27 18 13 15 27 28 52 68 21 44 47 233 165 78 80 54 4 21 61 46 33 52 52 311 127 56 346 294 196 209 273 277 277 294 345 13 310 285 87 77 268 286 86 131 111 58 43 35 35 27 21 20 18 16 13 9 7
134 148 155 159 160 150 101 39 24 20 16 10 360 2 1 340 75 175 32 50 13 328 357 360 2 6 8 15 20 66 95 341 2 15 18 29 29 54 77 2 45 44 258 130 57 61 328 4 19 31 47 35 31 11 265 151 82 337 302 66 323 298 280 255 189 136 270 294 318 47 108 251 287 208 182 134 63 39 25 24 17 14 14 14 11 8 6 3
145 158 164 168 167 153 79 20 4 360 0 357 358 8 10 356 239 216 83 73 346 331 3 355 4 10 14 31 34 60 67 353 15 10 14 32 32 48 70 69 127 106 6 104 101 3 6 6 2 2 19 19 4 325 252 152 109 281 290 11 324 293 272 167 137 206 280 344 322 313 55 287 279 238 180 116 63 36 16 10 3 5 6 7 6 2 1 358
159 171 176 180 182 184 247 333 334 338 346 350 2 14 8 4 258 47 77 106 326 349 360 355 1 357 2 32 34 37 38 25 30 1 18 40 33 45 81 77 132 152 31 73 133 224 13 14 308 59 40 355 299 283 209 149 263 291 310 16 51 58 57 85 92 72 25 21 283 279 22 284 282 290 359 28 59 27 354 349 349 2 4 1 1 357 355 354
169 182 190 196 202 223 264 300 317 326 339 346 357 10 8 12 60 63 52 159 327 346 339 4 2 342 356 21 19 14 24 24 10 4 26 41 38 48 83 77 75 107 23 38 71 292 300 253 239 85 49 295 288 298 208 182 277 313 339 356 29 48 41 49 53 66 38 331 285 276 196 157 286 303 2 357 49 208 307 336 334 360 4 358 356 354 352 351
187 198 208 215 226 251 278 298 310 318 333 342 345 336 348 10 61 89 71 265 316 345 349 11 359 352 12 39 2 355 5 3 3 13 22 27 32 35 42 27 18 36 15 12 20 349 344 36 320 322 335 317 319 334 318 232 287 342 14 357 358 359 6 18 355 28 28 295 281 265 215 149 258 274 119 181 276 223 235 322 313 337 358 355 349 349 350 347
206 221 230 240 249 268 285 295 308 316 322 337 338 313 319 33 32 85 304 311 332 354 7 347 332 2 12 22 8 343 341 350 3 27 26 15 36 31 34 38 347 14 13 354 356 350 350 305 314 302 320 349 358 354 347 346 353 14 27 21 22 357 354 358 333 353 278 271 271 184 39 239 238 261 167 176 224 267 261 316 310 305 334 347 345 343 344 342
222 232 241 257 264 275 286 290 305 315 314 329 326 329 78 77 37 253 293 330 2 348 342 279 314 339 345 11 12 337 351 356 352 17 26 45 62 35 39 51 34 39 355 345 8 1 340 311 336 357 337 356 38 46 350 333 353 6 19 47 55 25 352 329 309 325 295 284 286 112 145 274 286 281 180 183 182 167 344 329 320 312 316 334 341 338 336 335
223 239 255 269 276 279 289 295 303 315 328 348 27 52 63 76 195 269 318 295 295 337 345 290 316 338 32 46 354 320 29 9 347 14 4 21 47 12 355 15 18 42 40 26 42 28 17 324 337 8 327 348 37 76 208 242 321 314 188 110 79 70 353 282 278 293 301 300 304 329 298 279 313 316 180 179 181 208 341 332 324 323 322 330 336 336 336 337
204 264 273 292 304 294 296 308 321 344 327 57 67 63 73 124 241 72 282 271 302 324 311 336 10 20 14 352 331 348 81 336 353 43 17 21 63 11 346 344 357 18 61 39 341 350 62 270 277 292 274 327 29 323 182 111 359 282 146 83 21 183 169 219 238 232 272 294 297 306 267 236 306 308 216 209 265 275 306 316 318 324 333 339 341 341 341 340
73 335 353 6 360 349 324 286 22 43 146 109 69 59 105 186 231 163 206 284 339 320 318 344 32 44 350 319 337 359 14 321 3 52 30 35 102 20 353 286 331 14 66 90 342 332 34 290 296 335 309 138 68 304 237 72 333 313 56 4 295 182 143 171 275 279 342 291 282 305 297 294 359 303 281 295 295 278 286 316 331 336 342 345 343 341 339 336
81 79 67 49 38 37 49 97 83 86 111 90 75 87 193 204 194 191 247 333 236 118 66 32 18 30 342 314 324 334 345 350 8 39 36 27 51 12 345 293 310 11 17 142 186 241 90 298 305 356 338 314 17 23 52 48 29 46 17 305 292 109 104 103 272 327 360 284 278 321 306 308 338 324 282 297 319 331 329 334 340 340 343 342 337 334 332 331
81 80 66 48 41 47 70 86 82 101 96 78 70 117 166 223 215 218 263 358 235 45 72 84 17 43 112 329 318 320 346 2 360 28 45 22 32 10 342 313 334 10 2 136 101 91 116 309 296 306 313 306 345 56 21 359 40 84 63 311 30 18 322 16 342 318 330 290 286 305 297 298 313 290 309 336 336 341 336 335 338 337 339 336 331 330 330 330
65 68 49 37 47 61 66 72 84 98 87 74 77 142 148 234 228 240 287 331 219 72 67 78 5 53 105 127 326 313 352 14 357 30 61 42 18 5 16 307 311 354 359 75 117 287 124 102 287 282 301 316 355 36 344 324 346 32 49 15 29 158 238 309 330 287 305 286 290 302 298 300 251 231 282 339 338 341 337 336 337 334 334 331 329 329 329 328
76 69 39 34 59 66 57 76 88 80 76 89 167 150 163 221 163 5 359 7 29 72 63 170 102 47 357 35 63 310 6 32 2 21 38 39 23 359 38 39 314 331 339 23 89 343 25 103 263 292 334 350 354 22 9 317 331 5 39 14 348 3 264 298 278 136 109 275 286 300 296 294 223 188 261 328 341 346 342 338 336 332 331 330 329 328 326 325
94 70 33 42 65 68 85 91 72 64 75 113 122 114 147 113 88 36 26 38 51 58 103 141 117 100 39 32 37 282 349 13 13 42 24 21 45 29 357 2 327 318 334 10 59 18 351 123 236 300 346 347 284 291 313 142 124 80 75 88 55 61 30 342 308 324 100 196 262 285 288 292 314 168 234 339 345 345 345 341 334 331 330 329 327 325 323 322
90 76 42 61 69 84 104 80 41 38 91 86 74 88 99 104 75 46 34 33 36 44 79 103 92 102 136 77 349 221 14 2 357 46 114 269 52 229 312 340 337 310 342 15 334 326 152 115 229 280 283 283 300 350 86 112 104 89 82 100 118 110 92 80 298 312 4 273 272 272 281 291 244 178 254 347 343 341 345 340 334 331 328 326 323 322 322 322
76 72 56 70 73 88 98 74 13 25 68 76 89 83 77 89 68 45 37 31 18 24 52 62 54 59 96 196 183 169 115 123 226 25 208 238 258 246 290 345 356 319 314 356 330 348 40 69 14 299 284 303 8 41 95 109 92 75 50 50 86 95 113 164 203 312 325 285 289 290 284 289 237 230 320 336 339 342 344 338 333 329 325 322 321 320 321 322
75 63 49 45 68 112 100 103 98 68 66 95 83 57 48 69 54 34 27 26 20 55 74 60 42 51 81 170 103 177 244 76 198 256 187 209 243 277 311 352 9 12 41 128 313 346 349 49 39 353 338 346 4 6 332 326 46 68 40 20 58 54 27 85 108 24 316 258 289 311 286 289 307 322 325 331 339 344 339 334 330 325 320 319 320 320 321 322
77 62 51 54 79 106 94 107 127 123 138 110 72 28 28 61 47 39 61 59 47 64 79 57 295 45 91 116 60 320 299 58 237 298 25 235 252 277 323 345 9 45 44 154 227 344 15 128 90 75 359 327 323 311 302 313 346 59 86 35 40 59 52 57 84 25 301 293 304 287 274 293 309 318 322 329 344 345 334 329 326 322 319 319 319 320 321 321
81 66 46 52 71 83 81 87 103 110 136 117 77 20 37 67 39 43 62 70 54 60 71 55 294 251 56 65 43 321 315 8 41 76 98 263 264 275 335 3 53 37 21 2 338 34 99 98 108 136 197 258 257 264 286 335 322 292 39 42 354 353 72 76 113 267 297 299 294 270 280 301 310 315 321 331 344 340 328 324 322 320 319 319 319 320 319 320
76 60 34 52 65 70 67 65 77 96 137 131 100 48 28 359 316 27 47 57 52 61 78 54 37 49 25 38 54 298 297 331 18 77 143 251 266 297 330 7 36 2 355 31 2 44 94 42 48 166 228 250 250 269 294 325 293 274 80 65 333 267 72 74 47 295 300 296 291 301 309 308 308 314 323 332 338 334 325 322 320 319 318 318 319 320 320 321
87 95 91 102 96 57 53 53 70 83 86 95 115 125 40 20 15 32 13 19 44 48 73 44 22 18 256 262 85 337 323 351 346 308 148 259 291 346 352 244 51 5 5 74 25 66 108 76 156 178 257 270 267 274 283 282 266 162 121 126 145 194 329 12 304 288 296 289 289 305 310 306 306 314 324 331 331 330 324 320 318 318 318 319 320 320 320 321
111 111 88 91 101 105 112 99 81 78 64 57 80 69 69 70 57 268 278 344 11 6 38 73 323 314 255 230 137 124 314 16 311 293 209 197 298 1 31 219 29 13 30 62 26 53 100 270 206 166 275 282 272 269 277 286 290 125 127 154 183 201 276 319 304 292 294 286 288 300 304 301 306 318 324 326 325 323 321 318 317 318 318 319 319 319 319 322
120 123 113 106 94 75 83 79 70 77 50 33 59 45 95 105 78 252 264 55 51 320 19 81 271 273 234 215 153 149 210 191 205 247 203 146 319 262 134 177 248 357 20 42 4 23 25 329 275 105 323 290 267 295 317 309 285 183 139 125 297 274 299 323 318 310 306 300 301 307 306 303 319 330 323 321 321 320 318 317 317 319 319 319 319 319 321 325
114 122 120 111 84 24 37 40 37 83 41 13 68 185 246 153 180 185 162 108 163 201 241 199 239 232 188 233 209 213 240 218 221 246 236 219 262 219 117 84 142 351 9 30 357 8 24 350 350 56 360 299 291 348 326 327 72 112 37 337 336 339 338 330 323 319 317 313 313 316 313 306 325 328 321 318 319 320 318 318 319 321 321 320 319 322 326 327
111 119 117 106 83 11 22 24 21 70 76 325 159 182 194 182 191 170 134 254 210 182 219 219 215 201 205 281 254 250 285 278 265 271 270 259 246 210 48 60 68 35 19 82 36 1 34 1 351 33 350 308 333 340 317 320 54 52 328 307 351 348 336 327 327 322 317 316 314 312 313 317 324 326 323 320 321 320 319 320 321 319 318 318 321 325 326 325